Flag for India Weather past 2 weeks in Kolkata, West Bengal, India

Now
82 °F

Broken clouds.


Feels Like: 91 °F
Forecast: 80 / 94 °F
Wind: 6 mph from South

Location: Calcutta / Dum Dum

Current Time: Jul 4, 2015 at 7:19:13 AM

Latest Report: Jul 4, 2015 at 6:50 AM


Visibility: 2 mi

Pressure: 29.56 "Hg

Humidity: 84%

Dew point: 77 °F

Location of KolkataLocation

Historic Weather in Kolkata — Graph

°F

Kolkata temperature yesterday

Maximum temperature yesterday: 91 °F (at 1:50 PM)
Minimum temperature yesterday: 77 °F (at 12:20 AM)
Average temperature yesterday: 84 °F

Past Weeks' High & Low Weather Summary

 TemperatureHumidityPressure
High93 °F (Jun 29, 12:20 PM)100% (Jun 28, 12:20 PM)29.74 "Hg (Jun 28, 12:20 PM)
Low77 °F (Jun 27, 7:50 AM)63% (Jul 2, 2:20 PM)29.30 "Hg (Jun 26, 3:50 AM)
Average83 °F88%29.50 "Hg
* Reported Jun 19 5:50 AM — Jul 4 5:50 AM, Kolkata, Weather by CustomWeather, © 2015

Note: Actual official high and low records may vary slightly from our data, if they occured in-between our weather recording intervals... More about our weather records

Advertising

Kolkata weather history for previous 24 hours

 ConditionsComfort  
Time TempWeatherWind HumidityBarometerVisibility
5:50 AM
Sat, Jul 4
81 °FBroken clouds.5 mph89%29.53 "Hg1 mi
5:20 AM81 °FPartly cloudy.No wind89%29.53 "Hg1 mi
4:50 AM81 °FPartly cloudy.No wind89%29.50 "Hg1 mi
4:20 AM81 °FPartly cloudy.3 mph89%29.50 "Hg1 mi
3:50 AM81 °FPartly cloudy.No wind89%29.50 "Hg1 mi
3:20 AM81 °FPartly cloudy.No wind89%29.50 "Hg1 mi
2:50 AM81 °FPartly cloudy.No wind89%29.50 "Hg1 mi
2:20 AM81 °FPartly cloudy.No wind89%29.50 "Hg1 mi
1:50 AM81 °FPartly cloudy.3 mph89%29.53 "Hg1 mi
1:20 AM81 °FPartly cloudy.7 mph89%29.53 "Hg1 mi
12:50 AM81 °FPartly cloudy.9 mph89%29.56 "Hg1 mi
12:20 AM81 °FPartly cloudy.13 mph94%29.56 "Hg1 mi
11:50 PM
Fri, Jul 3
81 °FPartly cloudy.6 mph94%29.56 "Hg1 mi
11:20 PM81 °FPartly cloudy.5 mph89%29.56 "Hg1 mi
10:50 PM79 °FPartly cloudy.5 mph94%29.59 "Hg1 mi
10:20 PM79 °FPartly cloudy.3 mph94%29.59 "Hg1 mi
9:20 PM79 °FThunderstorms. Mostly cloudy.3 mph94%29.59 "Hg1 mi
8:20 PM77 °FThunderstorms. Mostly cloudy.14 mph94%29.59 "Hg1 mi
7:50 PM84 °FThunderstorms. Partly cloudy.8 mph94%29.56 "Hg1 mi
7:20 PM90 °FPartly cloudy.6 mph79%29.53 "Hg1 mi
6:50 PM90 °FBroken clouds.5 mph79%29.53 "Hg1 mi
6:20 PM90 °FBroken clouds.6 mph79%29.53 "Hg1 mi
5:50 PM90 °FBroken clouds.7 mph75%29.50 "Hg2 mi
5:20 PM90 °FBroken clouds.7 mph75%29.50 "Hg2 mi
4:50 PM91 °FBroken clouds.7 mph71%29.50 "Hg1 mi
4:20 PM91 °FBroken clouds.7 mph71%29.50 "Hg1 mi
3:50 PM91 °FBroken clouds.7 mph75%29.50 "Hg1 mi
3:20 PM91 °FBroken clouds.6 mph75%29.50 "Hg1 mi
2:50 PM91 °FBroken clouds.8 mph75%29.53 "Hg1 mi
2:20 PM91 °FBroken clouds.8 mph75%29.53 "Hg1 mi
1:50 PM91 °FBroken clouds.6 mph75%29.56 "Hg1 mi
1:20 PM90 °FBroken clouds.6 mph79%29.56 "Hg1 mi
12:50 PM90 °FBroken clouds.6 mph79%29.56 "Hg1 mi
12:20 PM90 °FBroken clouds.5 mph79%29.59 "Hg1 mi
11:50 AM88 °FBroken clouds.6 mph79%29.62 "Hg1 mi
11:20 AM88 °FBroken clouds.6 mph79%29.62 "Hg1 mi
10:50 AM88 °FBroken clouds.5 mph79%29.62 "Hg1 mi
10:20 AM86 °FFog.6 mph84%29.62 "Hg1 mi
9:50 AM84 °FFog.3 mph89%29.62 "Hg1 mi
9:20 AM84 °FFog.No wind89%29.62 "Hg1 mi
8:50 AM82 °FFog.No wind89%29.62 "Hg1 mi
8:20 AM82 °FFog.3 mph89%29.62 "Hg1 mi
7:50 AM82 °FFog.3 mph89%29.62 "Hg1 mi
7:20 AM81 °FFog.No wind89%29.59 "Hg1 mi
Weather by CustomWeather, © 2015

See weather overviewHow to use our weather pages